WUK74XF EGGW-LKPR

Flight info

Callsign WUK74XF
Flight time N/A
Altitude 37000
Route MATCH Q295 BRAIN M197 REDFA L620 TACHA DCT SOGPO DCT NOMKA L620 PIKIB T620 LALUK DCT GOLOP
Aircraft A320/M-SDE3FGHIRWY/LB1

Departure

Time 2026-04-29 08:20
Airport London Luton Airport (EGGW)

Arrival

Time N/A
Airport Václav Havel Airport Prague (LKPR)
Time Latitude Longitude Altitude Speed Heading
2026-04-29 07:58 51.87988 -0.37864 524 ft 0 kts 128°
2026-04-29 08:12 51.87995 -0.37879 523 ft 3 kts 136°
2026-04-29 08:12 51.88011 -0.37897 523 ft 3 kts 165°
2026-04-29 08:12 51.88030 -0.37901 523 ft 2 kts 186°
2026-04-29 08:13 51.88039 -0.37899 523 ft 1 kts 187°
2026-04-29 08:13 51.88040 -0.37899 523 ft 0 kts 187°
2026-04-29 08:16 51.88038 -0.37900 523 ft 1 kts 187°
2026-04-29 08:16 51.87996 -0.37959 523 ft 13 kts 227°
2026-04-29 08:17 51.87909 -0.38017 523 ft 15 kts 183°
2026-04-29 08:17 51.87813 -0.37945 523 ft 17 kts 130°
2026-04-29 08:17 51.87760 -0.37773 523 ft 18 kts 113°
2026-04-29 08:17 51.87699 -0.37569 520 ft 21 kts 115°
2026-04-29 08:18 51.87635 -0.37465 523 ft 10 kts 153°
2026-04-29 08:18 51.87560 -0.37463 522 ft 13 kts 193°
2026-04-29 08:18 51.87479 -0.37546 522 ft 15 kts 227°
2026-04-29 08:18 51.87404 -0.37676 520 ft 18 kts 221°
2026-04-29 08:19 51.87321 -0.37671 521 ft 10 kts 106°
2026-04-29 08:19 51.87335 -0.37577 521 ft 13 kts 74°
2026-04-29 08:19 51.87414 -0.37133 522 ft 75 kts 74°
2026-04-29 08:19 51.87611 -0.35998 518 ft 132 kts 73°
2026-04-29 08:20 51.87883 -0.34492 1057 ft 135 kts 74°
2026-04-29 08:20 51.88113 -0.33079 1815 ft 127 kts 76°
2026-04-29 08:20 51.88342 -0.31636 2114 ft 141 kts 77°
2026-04-29 08:20 51.88617 -0.30014 2341 ft 159 kts 77°
2026-04-29 08:21 51.88932 -0.28137 2467 ft 186 kts 77°
2026-04-29 08:21 51.89288 -0.25997 2649 ft 208 kts 77°
2026-04-29 08:21 51.89517 -0.23626 3020 ft 218 kts 95°
2026-04-29 08:21 51.88961 -0.21313 3777 ft 230 kts 124°
2026-04-29 08:22 51.87635 -0.19721 4609 ft 250 kts 149°
2026-04-29 08:22 51.86029 -0.18550 4920 ft 254 kts 150°
2026-04-29 08:22 51.84408 -0.17403 4998 ft 254 kts 150°
2026-04-29 08:22 51.82789 -0.16267 5005 ft 254 kts 150°
2026-04-29 08:23 51.81170 -0.15120 5104 ft 254 kts 150°
2026-04-29 08:23 51.79555 -0.13969 5113 ft 254 kts 150°
2026-04-29 08:23 51.77943 -0.12818 5108 ft 253 kts 150°
2026-04-29 08:23 51.76458 -0.11379 5107 ft 245 kts 131°
2026-04-29 08:24 51.75537 -0.09138 5104 ft 238 kts 107°
2026-04-29 08:24 51.75324 -0.06520 5097 ft 237 kts 85°
2026-04-29 08:24 51.75539 -0.03871 5088 ft 238 kts 83°
2026-04-29 08:24 51.75760 -0.01252 5083 ft 238 kts 83°
2026-04-29 08:25 51.75982 0.01397 5002 ft 238 kts 83°
2026-04-29 08:25 51.76203 0.04045 5008 ft 239 kts 83°
2026-04-29 08:25 51.76424 0.06706 5008 ft 239 kts 83°
2026-04-29 08:25 51.76644 0.09362 5009 ft 238 kts 83°
2026-04-29 08:26 51.76865 0.12008 5009 ft 238 kts 83°
2026-04-29 08:26 51.77082 0.14653 5008 ft 237 kts 83°
2026-04-29 08:26 51.77297 0.17302 5009 ft 239 kts 84°
2026-04-29 08:26 51.77514 0.19961 5010 ft 239 kts 84°
2026-04-29 08:27 51.77730 0.22620 5010 ft 239 kts 84°
2026-04-29 08:27 51.77944 0.25276 5010 ft 238 kts 83°
2026-04-29 08:27 51.78161 0.27960 5505 ft 244 kts 84°
2026-04-29 08:27 51.78379 0.30675 6481 ft 245 kts 84°
2026-04-29 08:28 51.78601 0.33430 7346 ft 249 kts 84°
2026-04-29 08:28 51.78828 0.36230 8208 ft 253 kts 84°
2026-04-29 08:28 51.79055 0.39069 9063 ft 257 kts 84°
2026-04-29 08:28 51.79284 0.41953 9892 ft 261 kts 84°
2026-04-29 08:29 51.79518 0.44915 10442 ft 276 kts 84°
2026-04-29 08:29 51.79769 0.48116 10660 ft 299 kts 84°
2026-04-29 08:29 51.80039 0.51581 10806 ft 322 kts 84°
2026-04-29 08:29 51.80323 0.55243 11229 ft 333 kts 84°
2026-04-29 08:30 51.80614 0.58978 11879 ft 337 kts 84°
2026-04-29 08:30 51.81315 0.66567 13116 ft 346 kts 77°
2026-04-29 08:30 51.81903 0.70306 13767 ft 350 kts 77°
2026-04-29 08:31 51.82497 0.74142 14382 ft 354 kts 77°
2026-04-29 08:31 51.83093 0.78016 14978 ft 356 kts 77°
2026-04-29 08:31 51.83690 0.81912 15561 ft 359 kts 77°
2026-04-29 08:31 51.84341 0.85816 16151 ft 361 kts 76°
2026-04-29 08:32 51.85051 0.89730 16740 ft 364 kts 75°
2026-04-29 08:32 51.85789 0.93657 17333 ft 366 kts 75°
2026-04-29 08:32 51.86535 0.97607 17915 ft 368 kts 74°
2026-04-29 08:32 51.87282 1.01597 18526 ft 371 kts 75°
2026-04-29 08:33 51.88024 1.05613 19059 ft 374 kts 75°
2026-04-29 08:33 51.88760 1.09658 19570 ft 376 kts 75°
2026-04-29 08:33 51.89494 1.13725 20087 ft 379 kts 75°
2026-04-29 08:33 51.90234 1.17840 20611 ft 381 kts 76°
2026-04-29 08:34 51.90973 1.21968 21110 ft 383 kts 76°
2026-04-29 08:34 51.91717 1.26131 21601 ft 386 kts 76°
2026-04-29 08:34 51.92465 1.30320 22057 ft 388 kts 76°
2026-04-29 08:34 51.92963 1.33104 22360 ft 390 kts 76°
2026-04-29 08:35 51.93718 1.37338 22808 ft 392 kts 76°
2026-04-29 08:35 51.94475 1.41605 23232 ft 394 kts 76°
2026-04-29 08:35 51.95232 1.45884 23674 ft 397 kts 76°
2026-04-29 08:35 51.95993 1.50201 24040 ft 400 kts 76°
2026-04-29 08:36 51.96756 1.54552 24377 ft 402 kts 76°
2026-04-29 08:36 51.97520 1.58926 24738 ft 404 kts 76°
2026-04-29 08:36 51.98287 1.63317 25109 ft 405 kts 76°
2026-04-29 08:36 51.99059 1.67724 25499 ft 407 kts 76°
2026-04-29 08:37 51.99810 1.72149 25875 ft 408 kts 77°
2026-04-29 08:37 52.00523 1.76614 26243 ft 409 kts 77°
2026-04-29 08:37 52.01219 1.81103 26609 ft 411 kts 77°
2026-04-29 08:37 52.01914 1.85602 26977 ft 412 kts 77°
2026-04-29 08:38 52.02611 1.90125 27336 ft 414 kts 77°
2026-04-29 08:38 52.03310 1.94658 27775 ft 413 kts 77°
2026-04-29 08:38 52.04004 1.99180 28265 ft 412 kts 77°
2026-04-29 08:38 52.04693 2.03691 28777 ft 410 kts 77°
2026-04-29 08:39 52.05374 2.08172 29317 ft 408 kts 77°
2026-04-29 08:39 52.06049 2.12640 29870 ft 406 kts 77°
2026-04-29 08:39 52.06711 2.17020 30420 ft 403 kts 77°
2026-04-29 08:39 52.07379 2.21438 30909 ft 401 kts 77°
2026-04-29 08:40 52.08043 2.25834 31379 ft 399 kts 77°
2026-04-29 08:40 52.08701 2.30214 31833 ft 398 kts 77°
2026-04-29 08:40 52.09353 2.34578 32292 ft 396 kts 77°
2026-04-29 08:40 52.10002 2.38926 32756 ft 395 kts 77°
2026-04-29 08:41 52.10649 2.43249 33221 ft 393 kts 77°
2026-04-29 08:41 52.11291 2.47566 33687 ft 392 kts 76°
2026-04-29 08:41 52.11970 2.51855 34138 ft 391 kts 74°
2026-04-29 08:41 52.12738 2.56091 34558 ft 390 kts 73°
2026-04-29 08:42 52.13559 2.60287 34885 ft 390 kts 72°
2026-04-29 08:42 52.14403 2.64488 35178 ft 391 kts 72°
2026-04-29 08:42 52.15246 2.68704 35450 ft 392 kts 72°
2026-04-29 08:42 52.16076 2.72937 35730 ft 393 kts 72°
2026-04-29 08:43 52.16892 2.77196 36002 ft 394 kts 73°
2026-04-29 08:43 52.17697 2.81475 36256 ft 395 kts 73°
2026-04-29 08:43 52.18494 2.85762 36517 ft 396 kts 73°
2026-04-29 08:43 52.19296 2.90076 36771 ft 397 kts 73°
2026-04-29 08:44 52.20100 2.94387 37020 ft 398 kts 73°
2026-04-29 08:44 52.20908 2.98724 37256 ft 400 kts 73°
2026-04-29 08:44 52.21711 3.03023 37360 ft 403 kts 73°
2026-04-29 08:45 52.23359 3.11879 37376 ft 410 kts 73°
2026-04-29 08:45 52.24938 3.20841 37381 ft 411 kts 78°
2026-04-29 08:46 52.25107 3.30141 37384 ft 414 kts 96°
2026-04-29 08:46 52.24312 3.39440 37382 ft 414 kts 95°
2026-04-29 08:47 52.23530 3.48754 37391 ft 414 kts 95°
2026-04-29 08:47 52.22746 3.58023 37379 ft 415 kts 95°
2026-04-29 08:48 52.21938 3.67365 37378 ft 417 kts 96°
2026-04-29 08:48 52.21115 3.76727 37381 ft 418 kts 96°
2026-04-29 08:49 52.20285 3.86112 37383 ft 418 kts 96°
2026-04-29 08:49 52.19445 3.95495 37394 ft 418 kts 95°
2026-04-29 08:50 52.18603 4.04895 37393 ft 420 kts 95°
2026-04-29 08:50 52.17759 4.14315 37387 ft 420 kts 95°
2026-04-29 08:51 52.16901 4.23734 37390 ft 421 kts 96°
2026-04-29 08:51 52.16027 4.33170 37395 ft 421 kts 96°
2026-04-29 08:52 52.15148 4.42604 37403 ft 421 kts 96°
2026-04-29 08:52 52.14260 4.52026 37401 ft 421 kts 96°
2026-04-29 08:53 52.13364 4.61448 37401 ft 421 kts 96°
2026-04-29 08:53 52.12460 4.70870 37398 ft 421 kts 96°
2026-04-29 08:54 52.11553 4.80219 37394 ft 421 kts 96°
2026-04-29 08:54 52.10641 4.89643 37411 ft 421 kts 96°
2026-04-29 08:55 52.09722 4.99060 37408 ft 422 kts 96°
2026-04-29 08:55 52.08789 5.08483 37401 ft 422 kts 96°
2026-04-29 08:56 52.07846 5.17907 37400 ft 423 kts 96°
2026-04-29 08:56 52.06895 5.27340 37395 ft 423 kts 96°
2026-04-29 08:57 52.05939 5.36772 37399 ft 423 kts 96°
2026-04-29 08:57 52.04968 5.46203 37408 ft 424 kts 96°
2026-04-29 08:58 52.04008 5.55457 37402 ft 424 kts 96°
2026-04-29 08:58 52.03029 5.64909 37400 ft 425 kts 96°
2026-04-29 08:59 52.02043 5.74369 37403 ft 425 kts 96°
2026-04-29 08:59 52.01052 5.83752 37404 ft 425 kts 96°
2026-04-29 09:00 52.00029 5.93277 37416 ft 426 kts 96°
2026-04-29 09:00 51.99016 6.02685 37410 ft 426 kts 96°
2026-04-29 09:01 51.97989 6.12182 37406 ft 426 kts 96°
2026-04-29 09:01 51.96957 6.21659 37403 ft 427 kts 97°
2026-04-29 09:02 51.95937 6.31121 37403 ft 427 kts 96°
2026-04-29 09:02 51.94955 6.40618 37418 ft 427 kts 96°
2026-04-29 09:03 51.93975 6.50125 37404 ft 428 kts 96°
2026-04-29 09:03 51.92979 6.59632 37397 ft 428 kts 96°
2026-04-29 09:04 51.91979 6.69091 37397 ft 428 kts 96°
2026-04-29 09:04 51.90966 6.78599 37399 ft 429 kts 96°
2026-04-29 09:05 51.89938 6.88118 37412 ft 429 kts 96°
2026-04-29 09:05 51.88903 6.97634 37411 ft 430 kts 96°
2026-04-29 09:06 51.87865 7.07166 37403 ft 430 kts 96°
2026-04-29 09:06 51.86812 7.16710 37398 ft 430 kts 96°
2026-04-29 09:07 51.85749 7.26245 37405 ft 431 kts 96°
2026-04-29 09:07 51.84683 7.35773 37424 ft 431 kts 96°
2026-04-29 09:08 51.83602 7.45316 37416 ft 431 kts 96°
2026-04-29 09:08 51.82527 7.54855 37402 ft 432 kts 96°
2026-04-29 09:09 51.81439 7.64332 37396 ft 432 kts 97°
2026-04-29 09:09 51.80331 7.73872 37394 ft 432 kts 97°
2026-04-29 09:10 51.79222 7.83408 37418 ft 432 kts 97°
2026-04-29 09:10 51.78091 7.93022 37411 ft 433 kts 97°
2026-04-29 09:11 51.77150 8.00964 37404 ft 433 kts 97°
2026-04-29 09:11 51.76774 8.04126 37402 ft 434 kts 97°